DW6004 Weather Reports


time (UTC)temp
F
wind
direction
speed
knots
gust
knots
rain 1hr
in
rain 24hr
in
rain mn
in
humidity
%
barometer
mb
20260509053503 51 0 0.0 0.0 0.00 0.02 0.00 75 1012.1
20260509053003 51 0 0.0 0.0 0.00 0.02 0.00 74 1012.2
20260509052503 51 0 0.0 0.0 0.00 0.02 0.00 74 1012.1
20260509052004 51 324 0.0 2.6 0.00 0.02 0.00 73 1012.1
20260509051504 51 318 0.9 3.5 0.00 0.02 0.00 73 1011.8
20260509051003 51 305 0.9 3.5 0.00 0.02 0.00 72 1011.9
20260509050503 51 263 0.0 1.7 0.00 0.02 0.00 72 1011.7
20260509050025 51 262 0.0 1.7 0.00 0.02 0.00 71 1012.0
20260509045503 51 0 0.0 0.0 0.00 0.02 0.00 70 1012.0
20260509045003 51 0 0.0 0.0 0.00 0.02 0.00 70 1011.9
20260509044504 51 0 0.0 0.0 0.00 0.02 0.00 69 1012.0
20260509044003 51 0 0.0 0.0 0.00 0.02 0.00 69 1012.1
20260509043503 51 0 0.0 0.0 0.00 0.02 0.00 68 1012.1
20260509043003 52 0 0.0 0.0 0.00 0.02 0.00 68 1012.2
20260509042524 52 0 0.0 0.0 0.00 0.02 0.00 67 1011.8
20260509042004 52 0 0.0 0.0 0.00 0.02 0.00 67 1012.0
20260509041504 53 0 0.0 0.0 0.00 0.02 0.00 66 1011.8
20260509041003 53 0 0.0 0.0 0.00 0.02 0.00 66 1011.7
20260509040504 53 0 0.0 0.0 0.00 0.02 0.00 66 1012.1
20260509040004 54 0 0.0 0.0 0.00 0.02 0.00 65 1011.9
20260509035503 54 0 0.0 0.0 0.00 0.02 0.02 65 1012.2
20260509035003 54 0 0.0 0.0 0.00 0.02 0.02 65 1012.2
20260509034503 54 256 0.0 0.9 0.00 0.02 0.02 65 1012.1
20260509034003 54 256 0.0 1.7 0.00 0.02 0.02 66 1012.3
20260509033503 54 256 0.0 2.6 0.00 0.02 0.02 66 1011.8
20260509033024 54 257 0.0 2.6 0.00 0.02 0.02 66 1012.3
20260509032503 54 257 0.0 2.6 0.00 0.02 0.02 66 1012.1
20260509032003 54 257 0.0 2.6 0.00 0.02 0.02 66 1012.1
20260509031524 54 262 0.0 2.6 0.00 0.02 0.02 66 1012.3
20260509031003 54 263 0.9 2.6 0.00 0.02 0.02 66 1012.4
20260509030525 53 264 0.0 2.6 0.00 0.02 0.02 67 1012.2
20260509030004 53 273 0.0 0.9 0.00 0.02 0.02 66 1012.1
20260509025504 53 0 0.0 0.0 0.00 0.02 0.02 66 1012.3
20260509025004 53 0 0.0 0.0 0.00 0.02 0.02 66 1012.3
20260509024503 53 0 0.0 0.0 0.00 0.02 0.02 66 1012.4
20260509024024 53 0 0.0 0.0 0.00 0.02 0.02 66 1012.1
20260509023504 53 0 0.0 0.0 0.00 0.02 0.02 65 1012.0
20260509023003 53 0 0.0 0.0 0.00 0.02 0.02 65 1012.0
20260509022504 53 0 0.0 0.0 0.00 0.02 0.02 65 1012.1
20260509022004 53 0 0.0 0.0 0.00 0.02 0.02 66 1011.9
20260509021503 53 0 0.0 0.0 0.00 0.02 0.02 65 1011.8
20260509021025 53 0 0.0 0.0 0.00 0.02 0.02 65 1011.8
20260509020524 53 0 0.0 0.0 0.00 0.02 0.02 65 1011.8
20260509020025 53 0 0.0 0.0 0.00 0.02 0.02 65 1011.7
20260509015503 53 0 0.0 0.0 0.00 0.02 0.02 65 1011.9
20260509015003 53 0 0.0 0.0 0.00 0.02 0.02 65 1011.9
20260509014504 53 0 0.0 0.0 0.00 0.02 0.02 64 1011.8
20260509014003 53 0 0.0 0.0 0.00 0.02 0.02 64 1011.5
20260509013503 53 0 0.0 0.0 0.00 0.02 0.02 64 1011.6
20260509013004 53 0 0.0 0.0 0.00 0.02 0.02 63 1011.5
20260509012503 53 0 0.0 0.0 0.00 0.02 0.02 63 1011.5
20260509012003 53 0 0.0 0.0 0.00 0.02 0.02 62 1011.3
20260509011504 53 0 0.0 0.0 0.00 0.02 0.02 62 1011.1
20260509011003 54 0 0.0 0.0 0.00 0.02 0.02 61 1011.0
20260509010504 54 0 0.0 0.0 0.00 0.02 0.02 61 1011.1
20260509010025 54 0 0.0 0.0 0.00 0.02 0.02 60 1011.1
20260509005525 54 0 0.0 0.0 0.00 0.02 0.02 60 1010.9
20260509005003 55 0 0.0 0.0 0.00 0.02 0.02 60 1010.7
20260509004503 55 0 0.0 0.0 0.00 0.02 0.02 59 1010.8
20260509004003 55 0 0.0 0.0 0.00 0.02 0.02 59 1010.8
20260509003503 55 0 0.0 0.0 0.00 0.02 0.02 58 1010.8
20260509003024 56 0 0.0 0.0 0.00 0.02 0.02 58 1010.7
20260509002504 56 0 0.0 0.0 0.00 0.02 0.02 57 1010.6
20260509002003 56 0 0.0 0.0 0.00 0.02 0.02 57 1010.5
20260509001503 56 0 0.0 0.0 0.00 0.02 0.02 56 1010.5
20260509001004 56 0 0.0 0.0 0.00 0.02 0.02 56 1010.5
20260509000524 57 289 0.0 1.7 0.00 0.02 0.02 55 1010.6
20260509000003 57 289 0.0 2.6 0.00 0.02 0.02 55 1010.4
20260508235504 57 288 0.9 2.6 0.00 0.02 0.02 55 1010.6
20260508235003 57 287 0.0 1.7 0.00 0.02 0.02 55 1010.6
20260508234504 58 311 0.9 2.6 0.00 0.02 0.02 54 1010.7
20260508234003 58 302 0.9 2.6 0.00 0.02 0.02 54 1010.9
20260508233504 58 296 0.9 3.5 0.00 0.02 0.02 54 1010.6
20260508233024 58 289 0.9 3.5 0.00 0.02 0.02 53 1010.5
20260508232503 59 274 1.7 3.5 0.00 0.02 0.02 53 1010.2
20260508232003 59 283 1.7 5.2 0.00 0.02 0.02 52 1010.5
20260508231503 59 293 0.9 5.2 0.00 0.02 0.02 52 1010.3
20260508231024 59 269 0.9 5.2 0.00 0.02 0.02 52 1010.5
20260508230504 60 278 0.9 5.2 0.00 0.02 0.02 52 1010.6
20260508230024 60 281 1.7 3.5 0.00 0.02 0.02 51 1010.4
20260508225503 60 269 0.9 3.5 0.00 0.02 0.02 52 1010.3
20260508225024 60 262 0.9 2.6 0.00 0.02 0.02 53 1010.4
20260508224503 60 263 1.7 6.1 0.00 0.02 0.02 52 1010.4
20260508224024 60 270 1.7 6.1 0.00 0.02 0.02 51 1010.4
20260508223503 60 271 0.9 5.2 0.00 0.02 0.02 51 1010.3
20260508223003 60 273 1.7 5.2 0.00 0.02 0.02 51 1010.4
20260508222504 61 281 1.7 5.2 0.00 0.02 0.02 51 1010.3
20260508222024 61 271 1.7 7.0 0.00 0.02 0.02 51 1010.2
20260508221504 62 288 2.6 7.8 0.00 0.02 0.02 51 1010.4
20260508221003 62 296 2.6 7.8 0.00 0.02 0.02 51 1010.2
20260508220504 62 285 2.6 6.1 0.00 0.02 0.02 51 1010.4
20260508220004 62 320 2.6 9.6 0.00 0.02 0.02 50 1010.3
20260508215504 61 321 3.5 9.6 0.00 0.02 0.02 53 1010.2
20260508215003 61 326 3.5 9.6 0.00 0.02 0.02 52 1010.2
20260508214503 61 336 4.3 9.6 0.00 0.02 0.02 52 1010.2
20260508214004 61 315 4.3 9.6 0.00 0.02 0.02 51 1010.4
20260508213503 61 278 4.3 11.3 0.00 0.02 0.02 53 1010.3
20260508213004 61 275 4.3 11.3 0.00 0.02 0.02 52 1010.5
20260508212524 61 302 4.3 12.2 0.00 0.02 0.02 52 1010.3
20260508212004 61 314 4.3 12.2 0.00 0.02 0.02 53 1010.5
20260508211503 60 306 4.3 11.3 0.00 0.02 0.02 55 1010.4
20260508211003 60 298 4.3 13.0 0.00 0.02 0.02 54 1010.6
20260508210504 60 300 4.3 13.0 0.00 0.02 0.02 52 1010.6
20260508210003 61 295 4.3 11.3 0.00 0.02 0.02 52 1010.8
20260508205503 60 293 4.3 9.6 0.00 0.02 0.02 52 1010.6
20260508205004 61 321 4.3 9.6 0.00 0.02 0.02 52 1010.6
20260508204503 60 336 3.5 8.7 0.00 0.02 0.02 54 1010.5
20260508204025 60 311 3.5 7.8 0.00 0.02 0.02 54 1010.6
20260508203503 60 300 3.5 8.7 0.00 0.02 0.02 53 1010.7
20260508203025 60 323 4.3 8.7 0.00 0.02 0.02 52 1010.7
20260508202504 60 343 4.3 11.3 0.00 0.02 0.02 52 1010.6
20260508202003 61 347 4.3 11.3 0.00 0.02 0.02 51 1010.4
20260508201504 61 332 4.3 12.2 0.00 0.02 0.02 52 1010.6
20260508201004 60 322 4.3 12.2 0.00 0.02 0.02 52 1010.4
20260508200503 60 334 3.5 8.7 0.00 0.02 0.02 52 1010.3
20260508200003 60 336 3.5 8.7 0.00 0.02 0.02 52 1010.4
20260508195525 60 313 2.6 8.7 0.00 0.02 0.02 51 1010.2
20260508195004 60 303 3.5 8.7 0.00 0.02 0.02 50 1010.4
20260508194503 61 329 4.3 9.6 0.00 0.02 0.02 51 1010.3
20260508194004 61 327 4.3 9.6 0.00 0.02 0.02 49 1010.3
20260508193503 61 312 4.3 13.9 0.00 0.02 0.02 48 1010.3
20260508193025 62 301 4.3 13.9 0.00 0.02 0.02 46 1010.5
20260508192503 62 296 5.2 13.0 0.00 0.02 0.02 46 1010.4
20260508192004 62 309 6.1 13.0 0.00 0.02 0.02 46 1010.4
20260508191504 62 319 5.2 13.0 0.00 0.02 0.02 45 1010.3
20260508191004 61 325 5.2 13.9 0.00 0.02 0.02 49 1010.2
20260508190503 61 298 5.2 13.9 0.00 0.02 0.02 46 1010.7
20260508190003 61 271 5.2 12.2 0.00 0.02 0.02 44 1010.5
20260508185504 61 271 6.1 18.2 0.00 0.02 0.02 44 1010.7
20260508185004 61 268 7.0 18.2 0.00 0.02 0.02 43 1010.5
20260508184504 60 270 6.1 13.9 0.00 0.02 0.02 42 1010.6
20260508184003 60 266 4.3 13.9 0.00 0.02 0.02 43 1010.5
20260508183504 60 248 4.3 13.9 0.00 0.02 0.02 43 1010.3
20260508183004 60 239 6.1 15.6 0.00 0.02 0.02 41 1010.6
20260508182503 61 240 7.8 20.0 0.00 0.02 0.02 43 1010.5
20260508182003 61 255 7.0 20.0 0.00 0.02 0.02 41 1010.4
20260508181503 62 253 7.0 19.1 0.00 0.02 0.02 40 1010.0
20260508181003 62 233 8.7 19.1 0.00 0.02 0.02 40 1010.4
20260508180503 63 235 8.7 16.5 0.00 0.02 0.02 41 1010.1
20260508180004 62 248 7.8 18.2 0.00 0.02 0.02 41 1010.2
20260508175503 62 244 7.0 18.2 0.00 0.02 0.02 41 1010.2
20260508175003 62 239 7.0 20.0 0.00 0.02 0.02 43 1010.2
20260508174524 61 237 7.8 20.0 0.00 0.02 0.02 44 1010.4
20260508174003 61 244 7.8 20.0 0.00 0.02 0.02 40 1010.4
20260508173503 62 244 6.1 18.2 0.00 0.02 0.02 41 1010.3
20260508173004 62 223 6.1 16.5 0.00 0.02 0.02 41 1010.3
20260508172504 62 220 7.0 20.0 0.00 0.02 0.02 41 1010.6
20260508172004 62 238 7.0 20.0 0.00 0.02 0.02 45 1010.6
20260508171504 62 239 7.8 16.5 0.00 0.02 0.02 43 1010.5
20260508171003 62 232 8.7 29.5 0.00 0.02 0.02 44 1010.6
20260508170503 62 236 8.7 29.5 0.00 0.02 0.02 42 1010.7
20260508170004 61 246 7.8 16.5 0.00 0.02 0.02 43 1010.5
20260508165525 61 248 8.7 18.2 0.00 0.02 0.02 47 1011.0
20260508165025 61 241 9.6 18.2 0.00 0.02 0.02 44 1011.0
20260508164503 60 238 9.6 16.5 0.00 0.02 0.02 45 1010.8
20260508164004 60 249 7.8 22.6 0.00 0.02 0.02 44 1011.1
20260508163524 61 254 7.0 22.6 0.00 0.02 0.02 43 1011.0
20260508163003 60 247 6.1 14.8 0.00 0.02 0.02 45 1011.2
20260508162503 60 239 6.1 18.2 0.00 0.02 0.02 45 1010.9
20260508162003 60 245 7.8 18.2 0.00 0.02 0.02 42 1011.1
20260508161503 60 244 7.0 18.2 0.00 0.02 0.02 43 1011.2
20260508161003 59 239 6.1 14.8 0.00 0.02 0.02 44 1011.3
20260508160525 58 246 7.0 14.8 0.00 0.02 0.02 44 1011.1
20260508160004 58 251 8.7 21.7 0.00 0.02 0.02 43 1011.3
20260508155504 58 255 8.7 21.7 0.00 0.02 0.02 42 1011.5
20260508155004 58 260 8.7 18.2 0.00 0.02 0.02 43 1011.4
20260508154525 58 260 7.8 15.6 0.00 0.02 0.02 43 1011.3
20260508154003 59 257 6.1 13.0 0.00 0.02 0.02 43 1011.4
20260508153524 59 240 6.1 12.2 0.00 0.02 0.02 41 1011.4
20260508153004 60 229 6.1 14.8 0.00 0.02 0.02 42 1011.4
20260508152503 60 248 6.1 14.8 0.00 0.02 0.02 41 1011.3
20260508152003 60 274 4.3 14.8 0.00 0.02 0.02 41 1011.1
20260508151504 60 271 4.3 13.0 0.00 0.02 0.02 43 1011.0
20260508151004 60 256 5.2 13.0 0.00 0.02 0.02 43 1011.3
20260508150503 59 247 4.3 8.7 0.00 0.02 0.02 42 1011.2
20260508150024 59 249 3.5 8.7 0.00 0.02 0.02 42 1011.0
20260508145504 59 262 2.6 9.6 0.00 0.02 0.02 43 1011.3
20260508145004 58 273 2.6 9.6 0.00 0.02 0.02 43 1011.2
20260508144504 58 277 3.5 11.3 0.00 0.02 0.02 44 1011.0
20260508144003 58 269 5.2 13.9 0.00 0.02 0.02 41 1011.3
20260508143504 59 267 5.2 13.9 0.00 0.02 0.02 41 1011.6
20260508143004 59 250 4.3 12.2 0.00 0.02 0.02 42 1011.4
20260508142524 59 244 3.5 7.8 0.00 0.02 0.02 50 1011.3
20260508142003 58 257 3.5 9.6 0.00 0.02 0.02 45 1011.5
20260508141524 58 253 4.3 9.6 0.00 0.02 0.02 47 1011.5
20260508141003 58 272 3.5 7.8 0.00 0.02 0.02 48 1011.6
20260508140503 57 279 2.6 7.8 0.00 0.02 0.02 50 1011.9
20260508140003 57 256 4.3 9.6 0.00 0.02 0.02 47 1011.6
20260508135503 57 254 4.3 9.6 0.00 0.02 0.02 53 1011.6
20260508135003 56 253 5.2 12.2 0.00 0.02 0.02 49 1011.8
20260508134504 56 243 5.2 12.2 0.00 0.02 0.02 49 1011.6
20260508134024 56 243 3.5 11.3 0.00 0.02 0.02 51 1011.7
20260508133503 56 261 2.6 9.6 0.00 0.02 0.02 56 1011.7
20260508133004 55 262 4.3 9.6 0.00 0.02 0.02 54 1011.5
20260508132504 55 257 5.2 11.3 0.00 0.02 0.02 55 1011.6
20260508132003 55 257 4.3 11.3 0.00 0.02 0.02 55 1011.7
20260508131503 55 274 2.6 7.8 0.00 0.02 0.02 57 1011.8
20260508131025 55 294 2.6 7.8 0.00 0.02 0.02 58 1011.7
20260508130504 55 310 3.5 9.6 0.00 0.02 0.02 59 1011.6
20260508130004 54 317 4.3 9.6 0.00 0.02 0.02 59 1011.6
20260508125503 54 316 4.3 8.7 0.00 0.02 0.02 59 1011.7
20260508125004 54 299 3.5 8.7 0.00 0.02 0.02 60 1011.7
20260508124503 53 271 2.6 7.0 0.00 0.02 0.02 63 1011.7
20260508124003 53 268 3.5 8.7 0.00 0.02 0.02 63 1011.5
20260508123504 53 268 3.5 8.7 0.00 0.02 0.02 62 1011.7
20260508123003 53 269 3.5 8.7 0.00 0.02 0.02 64 1011.7
20260508122503 52 252 4.3 8.7 0.00 0.02 0.02 66 1011.9
20260508122004 52 243 3.5 8.7 0.00 0.02 0.02 70 1012.1
20260508121524 51 245 2.6 7.8 0.00 0.02 0.02 70 1012.1
20260508121004 51 251 2.6 7.8 0.00 0.02 0.02 70 1011.9
20260508120525 51 252 2.6 7.8 0.00 0.02 0.02 72 1011.8
20260508120004 50 257 3.5 7.8 0.00 0.02 0.02 74 1012.0
20260508115503 50 262 3.5 7.8 0.00 0.02 0.02 74 1011.9
20260508115024 50 266 3.5 7.0 0.00 0.02 0.02 75 1012.0
20260508114504 49 261 2.6 7.0 0.00 0.02 0.02 76 1011.8
20260508114003 49 257 2.6 7.0 0.00 0.02 0.02 77 1012.0
20260508113503 48 254 2.6 7.0 0.00 0.02 0.02 79 1011.8
20260508113024 48 265 2.6 5.2 0.00 0.02 0.02 80 1011.7
20260508112524 47 267 3.5 7.8 0.00 0.02 0.02 81 1011.8
20260508112003 47 250 4.3 7.8 0.00 0.02 0.02 81 1011.7
20260508111503 47 262 3.5 7.0 0.00 0.02 0.02 83 1011.7
20260508111003 46 278 2.6 7.0 0.00 0.02 0.02 84 1011.7
20260508110503 46 270 1.7 6.1 0.00 0.02 0.02 84 1011.8
20260508110003 46 274 1.7 6.1 0.00 0.02 0.02 85 1011.6
20260508105503 45 271 2.6 6.1 0.00 0.02 0.02 86 1011.6
20260508105004 45 267 2.6 6.1 0.00 0.02 0.02 86 1011.7
20260508104503 45 269 2.6 6.1 0.00 0.02 0.02 86 1011.4
20260508104003 44 273 1.7 3.5 0.00 0.02 0.02 85 1011.6
20260508103503 44 272 0.9 3.5 0.00 0.02 0.02 84 1011.4
20260508103024 44 279 0.9 3.5 0.00 0.02 0.02 84 1011.1
20260508102503 44 291 1.7 3.5 0.00 0.02 0.02 84 1011.3
20260508102024 44 294 0.9 3.5 0.00 0.02 0.02 84 1011.2
20260508101503 44 279 0.9 3.5 0.00 0.02 0.02 83 1011.1
20260508101004 44 273 0.9 3.5 0.00 0.02 0.02 83 1011.0
20260508100524 44 268 0.9 2.6 0.00 0.02 0.02 82 1011.0
20260508100004 44 266 0.9 2.6 0.00 0.02 0.02 82 1010.9
20260508095503 44 266 0.9 2.6 0.00 0.02 0.02 81 1011.0
20260508095004 45 266 0.9 2.6 0.00 0.02 0.02 80 1010.9
20260508094503 45 267 0.9 2.6 0.00 0.02 0.02 80 1010.9
20260508094004 45 267 0.9 1.7 0.00 0.02 0.02 80 1010.8
20260508093503 45 268 0.9 1.7 0.00 0.02 0.02 79 1010.9
20260508093004 46 268 0.0 1.7 0.01 0.02 0.02 79 1010.8
20260508092503 46 0 0.0 0.0 0.02 0.02 0.02 79 1010.8
20260508092004 46 0 0.0 0.0 0.02 0.02 0.02 79 1010.9
20260508091524 46 0 0.0 0.0 0.02 0.02 0.02 79 1010.9
20260508091003 46 0 0.0 0.0 0.02 0.02 0.02 78 1010.9
20260508090503 46 0 0.0 0.0 0.02 0.02 0.02 78 1010.8
20260508090003 47 0 0.0 0.0 0.02 0.02 0.02 77 1010.7
20260508085503 47 0 0.0 0.0 0.02 0.02 0.02 77 1010.5
20260508085024 47 0 0.0 0.0 0.02 0.02 0.02 77 1010.9
20260508084503 47 297 0.0 1.7 0.02 0.02 0.02 77 1010.7
20260508084004 47 297 0.0 1.7 0.02 0.02 0.02 77 1010.6
20260508083503 47 271 0.0 1.7 0.02 0.02 0.02 76 1010.4
20260508083003 47 274 0.9 2.6 0.01 0.01 0.01 76 1010.2
20260508082504 47 279 0.9 2.6 0.00 0.00 0.00 76 1010.9
20260508082003 47 272 0.9 3.5 0.00 0.00 0.00 76 1010.8
20260508081503 47 275 0.9 3.5 0.00 0.00 0.00 76 1010.8
20260508081004 47 288 0.9 1.7 0.00 0.01 0.00 76 1010.7
20260508080503 47 294 0.9 5.2 0.00 0.02 0.00 76 1010.8
20260508080003 47 312 1.7 5.2 0.00 0.02 0.00 76 1010.7
20260508075524 47 344 1.7 5.2 0.00 0.02 0.00 76 1010.3
20260508075003 47 334 3.5 7.8 0.00 0.03 0.00 76 1010.1
20260508074503 47 327 3.5 7.8 0.00 0.04 0.00 76 1010.1
20260508074004 47 334 3.5 8.7 0.00 0.04 0.00 76 1010.5
20260508073503 47 339 3.5 8.7 0.00 0.05 0.00 76 1010.5
20260508073003 48 343 2.6 8.7 0.00 0.06 0.00 76 1010.1
20260508072503 48 346 3.5 7.8 0.00 0.06 0.00 76 1010.3
20260508072003 48 350 4.3 7.8 0.00 0.07 0.00 75 1010.2
20260508071503 48 345 4.3 7.8 0.00 0.07 0.00 75 1010.5
20260508071003 48 338 3.5 7.8 0.00 0.07 0.00 75 1010.4
20260508070503 48 349 3.5 7.8 0.00 0.07 0.00 74 1010.6
20260508070003 48 1 3.5 7.8 0.00 0.08 0.00 73 1010.6
20260508065524 49 5 2.6 7.0 0.00 0.08 0.00 73 1010.3
20260508065003 49 1 2.6 7.0 0.00 0.09 0.00 71 1010.4
20260508064503 49 345 2.6 7.0 0.00 0.09 0.00 71 1010.4
20260508064003 49 332 2.6 7.0 0.00 0.11 0.00 70 1010.7
20260508063503 49 321 3.5 8.7 0.00 0.11 0.00 69 1010.7
20260508063003 49 321 4.3 8.7 0.00 0.12 0.00 69 1010.7
20260508062503 50 333 4.3 8.7 0.00 0.13 0.00 67 1010.9
20260508062004 50 334 4.3 8.7 0.00 0.14 0.00 65 1011.2
20260508061524 50 323 3.5 8.7 0.00 0.14 0.00 66 1010.9
20260508061004 51 308 3.5 8.7 0.00 0.14 0.00 63 1010.8
20260508060503 51 285 3.5 8.7 0.00 0.15 0.00 61 1010.5
20260508060003 51 279 2.6 7.8 0.00 0.15 0.00 57 1010.7
20260508055504 50 297 1.7 7.0 0.00 0.15 0.00 61 1010.6
20260508055024 50 283 2.6 7.8 0.00 0.15 0.00 63 1010.3
20260508054503 49 270 2.6 7.8 0.00 0.15 0.00 66 1010.0
20260508054003 49 278 2.6 7.0 0.00 0.15 0.00 67 1009.9